Regional Weather Roundup
Issued by NWS Sioux Falls, SD

Home | Current Version | Previous Version | Text Only | Print | Product List | Glossary On
Versions: 1 2 3 4 5 6 7 8 9 10 11 12 13 14 15 16 17 18 19 20 21 22 23 24 25 26 27 28 29 30 31 32 33 34 35 36 37 38 39 40 41 42 43 44 45 46 47 48 49 50
000
ASUS43 KFSD 250010
RWRFSD

WEATHER ROUNDUP FOR SE SOUTH DAKOTA/SW MINNESOTA/NW IOWA
NATIONAL WEATHER SERVICE SIOUX FALLS SD
600 PM CST WED DEC 24 2014

NOTE: "FAIR" INDICATES FEW OR NO CLOUDS BELOW 12,000 FEET WITH NO
SIGNIFICANT WEATHER AND OR OBSTRUCTIONS TO VISIBILITY.


SDZ038>040-050-052>070-250100-
SOUTHEAST SOUTH DAKOTA

CITY           SKY/WX    TMP DP  RH WIND       PRES   REMARKS
CHAMBERLAIN    CLOUDY    24  21  88 SE8       29.56F WCI  15
6HR MIN TEMP:  24; 6HR MAX TEMP:  28;

HURON          CLOUDY    27  25  92 MISG      29.59F
6HR MIN TEMP:  25; 6HR MAX TEMP:  29;

MADISON        CLOUDY    25  25 100 SW12      29.62F FOG     WCI  14
MITCHELL       MOCLDY    28  26  92 S9        29.63F WCI  19
6HR MIN TEMP:  26; 6HR MAX TEMP:  30;

SIOUX FALLS    CLOUDY    26  24  92 SW5       29.65F FOG     WCI  20
6HR MIN TEMP:  25; 6HR MAX TEMP:  26; 6HR PCP: TRACE;

WINNER         FAIR      35  22  58 SW16      29.54F WCI  25
YANKTON        PTCLDY    27  23  86 SE6       29.68F WCI  20
$$

MNZ071-072-080-081-089-090-097-098-250100-
SOUTHWEST MINNESOTA

CITY           SKY/WX    TMP DP  RH WIND       PRES   REMARKS
FAIRMONT       CLOUDY    32  27  80 W9        29.66S WCI  24
JACKSON        CLOUDY    30  28  93 W9        29.66S WCI  22
LUVERNE        CLOUDY    28  27  93 SW10      29.66S FOG     WCI  19
MARSHALL       CLOUDY    27  25  93 SW9       29.62F WCI  17
6HR MIN TEMP:  27; 6HR MAX TEMP:  30;

MONTEVIDEO     CLOUDY    28  28 100 W7        29.63F WCI  21
PIPESTONE      FOG       25  25 100 SW9       29.62F VSB 1   WCI  15
REDWOOD FALLS  CLOUDY    31  28  89 SW7       29.63F WCI  24
TRACY          CLOUDY    28  27  96 SW9       29.63F WCI  19
WINDOM         CLOUDY    28  28 100 W5        29.65S WCI  23
WORTHINGTON    CLOUDY    27 -20  12 SW8       29.66R WCI  18
$$

IAZ001>003-012>014-020>022-031-032-NEZ013-014-SDZ071-250100-
NORTHWEST IOWA

CITY           SKY/WX    TMP DP  RH WIND       PRES   REMARKS
CHEROKEE       CLOUDY    26  26 100 SW6       29.70F FOG     WCI  19
DENISON        CLOUDY    28  28 100 W8        29.71F FOG     WCI  20
ESTHERVILLE    CLOUDY    29  27  92 W8        29.66S WCI  21
LE MARS        CLOUDY    28  27  93 S10       29.71S WCI  19
ORANGE CITY    CLOUDY    27  25  93 SW9       29.68S FOG     WCI  17
SHELDON        CLOUDY    27  27 100 SW7       29.66F FOG     WCI  19
SIOUX CITY     CLOUDY    29  26  89 SW8       29.73S WCI  21
6HR MIN TEMP:  28; 6HR MAX TEMP:  30;

SPENCER        CLOUDY    28  26  92 W10       29.67F FOG     WCI  19
6HR MIN TEMP:  28; 6HR MAX TEMP:  34;

STORM LAKE     FOG       27  27 100 W10       29.69F VSB 1/4 WCI  17
$$

ABBREVIATIONS USED IN REMARKS
   TC - TEMPERATURE IN CELSIUS
  WCI - WIND CHILL INDEX
   HX - HEAT INDEX
  VSB - VISIBILITY




USA.gov is the U.S. government's official web portal to all federal, state and local government web resources and services.